#�ϑ�����,���ϕ���,���ϕ���,�ő啗��,�ő啗����������,�ő�u�ԕ���,�ő�u�ԕ�����������
#(�N����),(m/s)   ,(16����),(m/s)   ,(16����)        ,(m/s)       ,(16����)            
2012/2/18 0:01,3.6,11,3.9,12,5,11
2012/2/18 0:02,3.3,12,3.6,12,6.4,10
2012/2/18 0:03,3.3,11,3.4,12,8.6,12
2012/2/18 0:04,3.5,12,3.6,12,8.2,14
2012/2/18 0:05,3.5,12,3.6,12,5.4,13
2012/2/18 0:06,3.5,12,3.5,12,6.8,12
2012/2/18 0:07,3.4,12,3.5,12,5.4,1
2012/2/18 0:08,3.2,12,3.4,12,3.9,11
2012/2/18 0:09,3,12,3.1,12,5.2,12
2012/2/18 0:10,2.8,13,2.9,11,0.8,10
2012/2/18 0:11,2.8,13,2.8,11,6.5,13
2012/2/18 0:12,2.7,13,2.8,11,2.9,13
2012/2/18 0:13,2.4,13,2.7,11,2.7,11
2012/2/18 0:14,2.1,12,2.3,12,5.1,11
2012/2/18 0:15,1.9,12,2,12,5,9
2012/2/18 0:16,1.7,12,1.9,12,6,9
2012/2/18 0:17,1.8,12,1.8,12,4.5,16
2012/2/18 0:18,2,12,2,12,5.7,1
2012/2/18 0:19,2,13,2,12,3.6,16
2012/2/18 0:20,2,13,2,13,1.6,16
2012/2/18 0:21,1.9,14,2,13,2.4,16
2012/2/18 0:22,1.8,15,1.8,13,1,3
2012/2/18 0:23,1.7,15,1.7,13,0.5,8
2012/2/18 0:24,1.5,16,1.7,12,2.9,12
2012/2/18 0:25,1.5,15,1.5,12,3,10
2012/2/18 0:26,1.3,16,1.5,12,0.9,10
2012/2/18 0:27,1.2,1,1.3,12,2.4,15
2012/2/18 0:28,1,1,1.2,13,3.9,11
2012/2/18 0:29,1,2,1,13,5.7,11
2012/2/18 0:30,1.2,9,1.2,13,5.7,9
2012/2/18 0:31,1.3,11,1.3,14,3.9,15
2012/2/18 0:32,1.5,11,1.5,15,5.8,12
2012/2/18 0:33,1.9,12,1.9,12,6.9,11
2012/2/18 0:34,1.9,12,1.9,12,3.9,13
2012/2/18 0:35,1.9,13,1.9,12,4.2,11
2012/2/18 0:36,2,12,2,13,4.2,12
2012/2/18 0:37,2.1,13,2.1,12,2.5,12
2012/2/18 0:38,2.2,13,2.2,13,3.3,1
2012/2/18 0:39,2.2,13,2.2,13,4.1,15
2012/2/18 0:40,2.2,13,2.2,13,6.3,12
2012/2/18 0:41,2.3,13,2.3,13,5.7,12
2012/2/18 0:42,2.2,13,2.3,13,5.6,15
2012/2/18 0:43,2,14,2.2,13,4.2,13
2012/2/18 0:44,2.1,14,2.1,13,3.5,13
2012/2/18 0:45,2,14,2.1,13,1.4,16
2012/2/18 0:46,1.9,14,2,13,1.4,10
2012/2/18 0:47,2,14,2,13,4.5,14
2012/2/18 0:48,2,14,2,13,3.9,15
2012/2/18 0:49,1.9,14,2,13,3,15
2012/2/18 0:50,1.7,14,1.9,13,4.8,11
2012/2/18 0:51,1.7,14,1.7,13,4.8,11
2012/2/18 0:52,1.7,14,1.7,14,4.4,14
2012/2/18 0:53,1.6,15,1.7,14,3.1,16
2012/2/18 0:54,1.6,15,1.7,14,3.2,1
2012/2/18 0:55,1.8,15,1.8,14,3.6,5
2012/2/18 0:56,1.9,16,1.9,14,5.7,16
2012/2/18 0:57,1.8,16,1.9,14,3.1,12
2012/2/18 0:58,1.9,15,1.9,14,5.2,16
2012/2/18 0:59,2,16,2,15,4.8,1
2012/2/18 1:00,2,16,2,15,4.4,1
2012/2/18 1:01,2.1,16,2.1,16,4.7,16
2012/2/18 1:02,2.1,16,2.1,16,3.3,16
2012/2/18 1:03,2.1,16,2.1,16,3.7,16
2012/2/18 1:04,2.3,16,2.3,16,6.2,15
2012/2/18 1:05,2.4,16,2.4,16,6.8,16
2012/2/18 1:06,2.5,16,2.5,16,5.6,16
2012/2/18 1:07,2.8,16,2.8,16,6.4,15
2012/2/18 1:08,2.9,16,3,16,5.8,15
2012/2/18 1:09,3.3,16,3.3,16,7.5,16
2012/2/18 1:10,3.4,16,3.4,16,6.7,15
2012/2/18 1:11,3.5,16,3.5,16,5.5,15
2012/2/18 1:12,3.6,15,3.6,15,5.4,16
2012/2/18 1:13,3.7,15,3.7,15,5.4,16
2012/2/18 1:14,3.5,15,3.7,15,4.3,16
2012/2/18 1:15,3.3,15,3.5,15,1.5,15
2012/2/18 1:16,3.1,15,3.3,15,2,14
2012/2/18 1:17,2.8,15,3.1,15,3.5,13
2012/2/18 1:18,2.6,14,2.8,15,2.5,11
2012/2/18 1:19,2.3,14,2.5,15,4.2,15
2012/2/18 1:20,2.2,14,2.3,15,4.4,13
2012/2/18 1:21,2,14,2.1,15,5.1,13
2012/2/18 1:22,1.9,13,2,15,4.8,12
2012/2/18 1:23,1.9,13,1.9,15,5.1,14
2012/2/18 1:24,1.9,13,1.9,16,3.7,14
2012/2/18 1:25,2,13,2,15,3.7,15
2012/2/18 1:26,2,13,2,15,4.7,16
2012/2/18 1:27,1.9,13,2,15,3.6,15
2012/2/18 1:28,2.2,14,2.2,14,7.6,15
2012/2/18 1:29,2.2,14,2.2,14,4.4,16
2012/2/18 1:30,2.1,14,2.2,14,3.1,13
2012/2/18 1:31,2.1,14,2.2,14,3.8,9
2012/2/18 1:32,1.9,14,2.1,14,3.1,15
2012/2/18 1:33,1.8,14,1.9,14,2.2,1
2012/2/18 1:34,1.9,15,1.9,14,4.8,16
2012/2/18 1:35,1.9,15,1.9,14,5,1
2012/2/18 1:36,2,15,2,14,4.2,16
2012/2/18 1:37,2,15,2,14,3.8,16
2012/2/18 1:38,1.9,15,2.1,14,3.2,16
2012/2/18 1:39,1.8,15,1.9,14,2.5,1
2012/2/18 1:40,1.9,15,1.9,14,4.5,16
2012/2/18 1:41,2,16,2,14,4.2,1
2012/2/18 1:42,2.2,16,2.2,16,4.3,1
2012/2/18 1:43,2.3,16,2.3,16,5.4,16
2012/2/18 1:44,2.2,16,2.3,16,3.1,13
2012/2/18 1:45,2.2,15,2.2,16,3.1,11
2012/2/18 1:46,2.2,15,2.2,16,3,11
2012/2/18 1:47,1.9,15,2.1,16,1,13
2012/2/18 1:48,1.7,15,1.9,16,1.1,2
2012/2/18 1:49,1.6,15,1.7,16,0.6,8
2012/2/18 1:50,1.5,16,1.6,16,1.8,7
2012/2/18 1:51,1.3,1,1.5,16,1.5,4
2012/2/18 1:52,1.1,3,1.3,16,1.3,4
2012/2/18 1:53,0.9,3,1,16,1.5,14
2012/2/18 1:54,0.9,2,0.9,16,2.4,13
2012/2/18 1:55,0.8,2,0.9,15,1.1,14
2012/2/18 1:56,0.7,4,0.8,15,2.6,6
2012/2/18 1:57,0.8,4,0.8,15,1.9,13
2012/2/18 1:58,0.8,2,0.8,15,0.9,14
2012/2/18 1:59,0.9,10,0.9,15,1.9,9
2012/2/18 2:00,0.9,11,0.9,16,1.6,9
2012/2/18 2:01,1.1,13,1.1,1,7,15
2012/2/18 2:02,1.3,13,1.3,13,5.6,15
2012/2/18 2:03,1.3,13,1.3,13,3,13
2012/2/18 2:04,1.5,13,1.5,13,5.2,14
2012/2/18 2:05,1.6,13,1.6,13,3.1,11
2012/2/18 2:06,1.6,13,1.6,13,3.7,12
2012/2/18 2:07,1.8,13,1.8,13,5.4,14
2012/2/18 2:08,2,12,2,12,5.5,10
2012/2/18 2:09,2.1,13,2.1,13,4.1,10
2012/2/18 2:10,2.3,13,2.3,13,6.1,11
2012/2/18 2:11,2.3,12,2.4,12,5.6,9
2012/2/18 2:12,2.5,12,2.5,12,6.2,11
2012/2/18 2:13,2.7,11,2.7,12,5.6,9
2012/2/18 2:14,2.6,11,2.7,12,3.5,15
2012/2/18 2:15,2.5,11,2.6,12,1.4,13
2012/2/18 2:16,2.5,12,2.5,12,3.5,13
2012/2/18 2:17,2.5,12,2.5,12,3.3,13
2012/2/18 2:18,2.3,12,2.4,12,2.2,15
2012/2/18 2:19,2.3,12,2.3,12,3.3,8
2012/2/18 2:20,2.1,12,2.3,12,3.6,7
2012/2/18 2:21,1.9,12,2.1,12,2.7,10
2012/2/18 2:22,1.6,12,1.9,12,2.2,11
2012/2/18 2:23,1.4,12,1.6,11,2.1,16
2012/2/18 2:24,1.4,13,1.4,11,2.6,14
2012/2/18 2:25,1.4,13,1.4,11,2.2,13
2012/2/18 2:26,1.4,13,1.5,12,3.1,12
2012/2/18 2:27,1.5,13,1.5,12,5.7,15
2012/2/18 2:28,1.7,13,1.7,12,6.4,16
2012/2/18 2:29,1.8,14,1.8,12,7.8,16
2012/2/18 2:30,2,14,2,12,9.7,15
2012/2/18 2:31,2,14,2,14,2.4,14
2012/2/18 2:32,2,14,2,14,3.7,10
2012/2/18 2:33,2.1,14,2.1,14,3.7,6
2012/2/18 2:34,2.1,13,2.1,14,2.4,11
2012/2/18 2:35,2.1,13,2.1,14,2.4,14
2012/2/18 2:36,2,13,2.1,14,2.2,13
2012/2/18 2:37,1.9,12,2,14,2.5,8
2012/2/18 2:38,1.6,11,1.8,14,2.4,9
2012/2/18 2:39,1.6,10,1.6,14,3.2,11
2012/2/18 2:40,1.5,10,1.6,14,4.8,11
2012/2/18 2:41,1.5,10,1.6,14,2.7,11
2012/2/18 2:42,1.6,10,1.6,14,3,10
2012/2/18 2:43,1.6,11,1.6,14,2.7,14
2012/2/18 2:44,1.6,11,1.6,13,1.8,15
2012/2/18 2:45,1.6,12,1.6,13,2.2,1
2012/2/18 2:46,1.7,12,1.7,13,2.6,16
2012/2/18 2:47,1.7,14,1.7,12,2.6,16
2012/2/18 2:48,1.9,14,1.9,14,6.8,16
2012/2/18 2:49,2.1,15,2.1,15,5.4,15
2012/2/18 2:50,1.9,15,2,15,2.6,14
2012/2/18 2:51,1.9,15,1.9,15,2.2,14
2012/2/18 2:52,1.8,16,1.9,15,1.6,4
2012/2/18 2:53,1.8,16,1.8,15,3.1,3
2012/2/18 2:54,1.9,16,1.9,15,3.7,3
2012/2/18 2:55,1.8,1,1.9,15,2.1,3
2012/2/18 2:56,1.7,1,1.8,15,1.5,2
2012/2/18 2:57,1.6,1,1.7,15,1.3,5
2012/2/18 2:58,1.3,2,1.5,15,0.9,4
2012/2/18 2:59,1,2,1.2,15,1.1,10
2012/2/18 3:00,0.9,3,1,15,2.4,8
2012/2/18 3:01,0.9,4,0.9,15,3.1,9
2012/2/18 3:02,1.1,5,1.1,16,3.6,9
2012/2/18 3:03,1.2,7,1.2,16,4.3,10
2012/2/18 3:04,1,9,1.2,1,2.4,9
2012/2/18 3:05,1,10,1,1,2,8
2012/2/18 3:06,1,9,1,1,2.9,8
2012/2/18 3:07,1.1,10,1.1,1,2,11
2012/2/18 3:08,1.4,10,1.4,10,4.1,10
2012/2/18 3:09,1.5,10,1.5,10,3.7,10
2012/2/18 3:10,1.5,10,1.5,10,3.1,10
2012/2/18 3:11,1.5,10,1.5,10,3.2,8
2012/2/18 3:12,1.4,10,1.5,10,2.5,12
2012/2/18 3:13,1.2,10,1.4,10,1.5,11
2012/2/18 3:14,1.2,10,1.2,10,1.1,13
2012/2/18 3:15,1.2,10,1.2,10,1.6,6
2012/2/18 3:16,1.2,11,1.2,10,0.9,13
2012/2/18 3:17,1.2,11,1.2,10,1.8,15
2012/2/18 3:18,0.9,12,1.2,10,1.8,15
2012/2/18 3:19,0.8,12,0.9,10,0.3,10
2012/2/18 3:20,0.7,12,0.8,10,1,11
2012/2/18 3:21,0.6,12,0.7,10,1.6,7
2012/2/18 3:22,0.5,12,0.6,10,1.4,7
2012/2/18 3:23,0.5,13,0.5,10,0.9,1
2012/2/18 3:24,0.4,13,0.5,10,0.6,4
2012/2/18 3:25,0.4,14,0.4,10,0.6,5
2012/2/18 3:26,0.4,1,0.4,11,1,6
2012/2/18 3:27,0.4,5,0.4,11,1.4,4
2012/2/18 3:28,0.5,4,0.5,12,4.2,16
2012/2/18 3:29,0.8,2,0.8,12,4.3,16
2012/2/18 3:30,1.1,2,1.1,2,6,15
2012/2/18 3:31,1.3,1,1.3,1,4.4,15
2012/2/18 3:32,1.4,1,1.4,1,2.1,13
2012/2/18 3:33,1.5,16,1.5,16,2.7,11
2012/2/18 3:34,1.6,16,1.6,16,1.8,16
2012/2/18 3:35,1.7,16,1.7,16,2.2,5
2012/2/18 3:36,1.7,15,1.7,16,1.9,9
2012/2/18 3:37,1.7,15,1.7,16,1.4,6
2012/2/18 3:38,1.7,14,1.7,16,2.7,9
2012/2/18 3:39,1.5,12,1.7,16,2.5,8
2012/2/18 3:40,1.3,10,1.5,16,2.2,1
2012/2/18 3:41,1.1,9,1.2,16,0.9,14
2012/2/18 3:42,1,2,1,16,2.7,15
2012/2/18 3:43,1.1,1,1.1,16,3.3,16
2012/2/18 3:44,1.1,14,1.1,16,2.9,15
2012/2/18 3:45,1.1,14,1.1,15,2.2,13
2012/2/18 3:46,1.2,14,1.2,16,2.5,12
2012/2/18 3:47,1.3,13,1.3,15,3.1,9
2012/2/18 3:48,1.5,13,1.5,13,4.8,10
2012/2/18 3:49,1.6,13,1.6,13,3.5,11
2012/2/18 3:50,1.9,13,1.9,13,5,10
2012/2/18 3:51,2.1,12,2.1,12,4.3,9
2012/2/18 3:52,2.2,12,2.2,12,4.4,10
2012/2/18 3:53,2.3,11,2.3,12,3.2,11
2012/2/18 3:54,2.2,11,2.3,12,1.8,14
2012/2/18 3:55,2.1,11,2.2,12,0.8,1
2012/2/18 3:56,2.1,11,2.1,12,1.4,13
2012/2/18 3:57,2.1,12,2.1,12,3.2,13
2012/2/18 3:58,2,12,2.1,12,3.6,13
2012/2/18 3:59,2,12,2,12,3.9,13
2012/2/18 4:00,1.8,13,2,12,3.5,15
2012/2/18 4:01,1.9,13,1.9,12,5.6,14
2012/2/18 4:02,2,14,2,12,4.9,15
2012/2/18 4:03,2,14,2,11,4.9,15
2012/2/18 4:04,2.1,14,2.1,11,3.7,12
2012/2/18 4:05,2.4,13,2.4,13,3,11
2012/2/18 4:06,2.5,13,2.5,13,2.6,11
2012/2/18 4:07,2.4,13,2.5,13,2.1,12
2012/2/18 4:08,2.3,13,2.4,13,1.5,14
2012/2/18 4:09,2.2,13,2.3,13,1.4,12
2012/2/18 4:10,2.1,13,2.1,13,2.6,12
2012/2/18 4:11,1.9,12,2.1,13,2.9,11
2012/2/18 4:12,1.7,12,1.9,13,1.4,14
2012/2/18 4:13,1.6,12,1.7,13,1.9,13
2012/2/18 4:14,1.4,12,1.6,13,1.3,12
2012/2/18 4:15,1.3,12,1.4,13,1,10
2012/2/18 4:16,1.2,12,1.2,13,2.4,10
2012/2/18 4:17,1.2,12,1.2,13,2.4,10
2012/2/18 4:18,1.2,12,1.2,13,2,16
2012/2/18 4:19,1.3,13,1.3,13,3.3,16
2012/2/18 4:20,1.2,13,1.2,13,1.6,15
2012/2/18 4:21,1.1,13,1.1,12,2,11
2012/2/18 4:22,1.2,13,1.2,12,2.1,12
2012/2/18 4:23,1.2,12,1.2,12,1.8,12
2012/2/18 4:24,1.2,12,1.2,12,1.5,12
2012/2/18 4:25,1.3,12,1.3,13,2,11
2012/2/18 4:26,1.3,12,1.3,13,1.9,11
2012/2/18 4:27,1.3,12,1.3,13,1.3,11
2012/2/18 4:28,1.3,12,1.3,13,1.1,11
2012/2/18 4:29,1.2,12,1.2,12,1.6,11
2012/2/18 4:30,1.1,12,1.2,12,1.3,12
2012/2/18 4:31,1,11,1.1,12,0.4,11
2012/2/18 4:32,0.9,11,1,12,0.8,11
2012/2/18 4:33,0.8,11,0.9,12,1.1,10
2012/2/18 4:34,0.9,11,0.9,12,1.9,9
2012/2/18 4:35,0.9,11,0.9,12,2.4,9
2012/2/18 4:36,1,11,1,12,2.5,9
2012/2/18 4:37,1,11,1,12,2.2,8
2012/2/18 4:38,1,10,1,12,1.9,9
2012/2/18 4:39,0.9,11,1,12,1.5,14
2012/2/18 4:40,1.1,10,1.1,12,2.7,11
2012/2/18 4:41,1.3,10,1.3,10,3.2,10
2012/2/18 4:42,1.4,10,1.4,10,3.2,10
2012/2/18 4:43,1.4,10,1.4,10,2.4,10
2012/2/18 4:44,1.3,10,1.4,10,1.6,12
2012/2/18 4:45,1.3,11,1.3,10,2.1,13
2012/2/18 4:46,1.3,11,1.3,10,2.2,11
2012/2/18 4:47,1.3,11,1.3,10,2.1,12
2012/2/18 4:48,1.4,11,1.4,10,2.1,10
2012/2/18 4:49,1.4,11,1.4,10,2.2,9
2012/2/18 4:50,1.3,11,1.4,10,1.3,12
2012/2/18 4:51,1.2,11,1.3,10,2.7,11
2012/2/18 4:52,1.2,11,1.2,10,3.3,11
2012/2/18 4:53,1.4,12,1.4,10,4.4,14
2012/2/18 4:54,1.5,12,1.5,12,3.2,14
2012/2/18 4:55,1.5,12,1.5,12,2.4,15
2012/2/18 4:56,1.4,12,1.5,12,1,13
2012/2/18 4:57,1.2,12,1.4,12,0.6,12
2012/2/18 4:58,1.1,12,1.2,12,0.8,10
2012/2/18 4:59,1.1,13,1.1,12,0.3,7
2012/2/18 5:00,1,12,1.1,12,1.6,9
2012/2/18 5:01,0.9,12,1,12,1,11
2012/2/18 5:02,0.8,12,0.9,12,2.2,10
2012/2/18 5:03,0.8,11,0.8,12,2.4,8
2012/2/18 5:04,0.8,10,0.8,12,3,9
2012/2/18 5:05,0.9,10,0.9,12,3.1,9
2012/2/18 5:06,1,9,1,12,3.1,9
2012/2/18 5:07,1.1,9,1.1,12,3,9
2012/2/18 5:08,1.3,9,1.3,9,2.6,9
2012/2/18 5:09,1.4,9,1.4,9,2.4,12
2012/2/18 5:10,1.5,10,1.5,9,1.6,11
2012/2/18 5:11,1.6,10,1.6,10,1.6,11
2012/2/18 5:12,1.6,10,1.6,10,1.5,10
2012/2/18 5:13,1.5,10,1.6,10,1.4,9
2012/2/18 5:14,1.5,10,1.5,10,2.6,10
2012/2/18 5:15,1.5,10,1.5,10,3,9
2012/2/18 5:16,1.5,10,1.5,10,2.6,9
2012/2/18 5:17,1.5,10,1.5,10,2.4,10
2012/2/18 5:18,1.4,10,1.5,10,3.5,9
2012/2/18 5:19,1.4,10,1.4,10,2.4,10
2012/2/18 5:20,1.5,10,1.5,10,3.5,10
2012/2/18 5:21,1.6,10,1.6,10,3.9,10
2012/2/18 5:22,1.6,10,1.6,10,2.5,8
2012/2/18 5:23,1.7,10,1.7,10,2.9,9
2012/2/18 5:24,1.7,10,1.7,10,3.3,11
2012/2/18 5:25,1.7,10,1.7,10,3.2,11
2012/2/18 5:26,1.8,10,1.8,10,4.5,10
2012/2/18 5:27,1.9,10,1.9,10,4.5,10
2012/2/18 5:28,2,10,2,10,4.3,12
2012/2/18 5:29,2,10,2,10,2,10
2012/2/18 5:30,1.9,10,1.9,10,4.8,9
2012/2/18 5:31,1.9,10,1.9,10,3.3,10
2012/2/18 5:32,1.9,10,1.9,10,3.2,10
2012/2/18 5:33,1.8,10,1.9,10,1.3,10
2012/2/18 5:34,1.6,11,1.8,10,0.4,16
2012/2/18 5:35,1.5,11,1.6,10,0.1,14
2012/2/18 5:36,1.3,11,1.4,10,1,2
2012/2/18 5:37,1,12,1.2,10,1.3,15
2012/2/18 5:38,0.8,13,1,10,1.3,16
2012/2/18 5:39,0.8,13,0.8,10,1.3,11
2012/2/18 5:40,0.7,13,0.8,10,1,14
2012/2/18 5:41,0.5,14,0.7,10,0.9,16
2012/2/18 5:42,0.4,15,0.5,10,0.9,16
2012/2/18 5:43,0.4,15,0.4,10,1.4,16
2012/2/18 5:44,0.5,15,0.5,11,2.1,16
2012/2/18 5:45,0.6,15,0.6,11,2.2,14
2012/2/18 5:46,0.7,15,0.7,11,1.5,14
2012/2/18 5:47,0.7,14,0.7,12,1.6,13
2012/2/18 5:48,0.9,14,0.9,14,3,12
2012/2/18 5:49,1.1,14,1.1,14,3.5,11
2012/2/18 5:50,1.4,14,1.4,14,3.7,11
2012/2/18 5:51,1.5,13,1.5,14,2.7,10
2012/2/18 5:52,1.6,13,1.6,13,2.9,11
2012/2/18 5:53,1.8,12,1.8,12,3,11
2012/2/18 5:54,1.8,12,1.8,12,2.7,12
2012/2/18 5:55,1.8,12,1.8,12,2,13
2012/2/18 5:56,1.9,11,1.9,12,3,11
2012/2/18 5:57,2,11,2,11,3.7,9
2012/2/18 5:58,2.1,11,2.1,11,5.1,10
2012/2/18 5:59,2.2,11,2.2,11,5,10
2012/2/18 6:00,2.2,11,2.2,11,4.4,9
2012/2/18 6:01,2.3,11,2.3,11,4.8,10
2012/2/18 6:02,2.2,11,2.3,11,2.5,10
2012/2/18 6:03,2.1,11,2.2,11,2.4,8
2012/2/18 6:04,2.1,10,2.1,11,3.5,11
2012/2/18 6:05,2.2,10,2.2,11,4.3,9
2012/2/18 6:06,2.4,10,2.4,10,4.5,11
2012/2/18 6:07,2.6,10,2.6,10,4.8,11
2012/2/18 6:08,2.6,10,2.6,10,4.9,10
2012/2/18 6:09,2.5,10,2.5,10,4.2,11
2012/2/18 6:10,2.5,10,2.5,10,4.8,10
2012/2/18 6:11,2.6,10,2.6,10,4.4,10
2012/2/18 6:12,2.7,10,2.7,10,3.6,11
2012/2/18 6:13,2.8,10,2.8,10,2.5,10
2012/2/18 6:14,2.7,11,2.8,10,3.2,10
2012/2/18 6:15,2.6,11,2.7,10,2.6,10
2012/2/18 6:16,2.5,11,2.6,10,3.7,11
2012/2/18 6:17,2.3,11,2.5,10,2.1,11
2012/2/18 6:18,2,11,2.3,10,1.5,14
2012/2/18 6:19,1.9,11,2,10,1.9,11
2012/2/18 6:20,1.7,12,1.8,10,2.7,13
2012/2/18 6:21,1.6,12,1.7,10,2.1,11
2012/2/18 6:22,1.5,12,1.6,10,2.9,10
2012/2/18 6:23,1.6,12,1.6,11,3.8,10
2012/2/18 6:24,1.6,12,1.6,11,3.3,10
2012/2/18 6:25,1.7,12,1.7,11,2.7,11
2012/2/18 6:26,1.7,12,1.7,11,3.8,10
2012/2/18 6:27,1.9,11,1.9,11,4.8,10
2012/2/18 6:28,2.1,11,2.1,11,4.2,10
2012/2/18 6:29,2.3,11,2.3,11,4.2,10
2012/2/18 6:30,2.4,10,2.4,10,3.3,9
2012/2/18 6:31,2.3,10,2.4,10,2.5,10
2012/2/18 6:32,2.2,10,2.3,10,1.8,10
2012/2/18 6:33,2.2,10,2.2,10,3,11
2012/2/18 6:34,2.2,10,2.2,10,4.8,9
2012/2/18 6:35,2.3,10,2.4,10,4.4,10
2012/2/18 6:36,2.3,10,2.3,10,4.4,9
2012/2/18 6:37,2.1,10,2.3,10,4.2,10
2012/2/18 6:38,2,10,2.1,10,4.2,10
2012/2/18 6:39,1.9,10,2,10,1.6,11
2012/2/18 6:40,1.7,10,1.8,10,1.6,8
2012/2/18 6:41,1.7,10,1.7,10,2,9
2012/2/18 6:42,1.7,10,1.7,10,2,9
2012/2/18 6:43,1.6,10,1.7,10,3.2,10
2012/2/18 6:44,1.5,10,1.6,10,2.1,9
2012/2/18 6:45,1.4,10,1.5,10,2.4,10
2012/2/18 6:46,1.3,10,1.4,10,2.6,9
2012/2/18 6:47,1.2,10,1.3,10,2.2,10
2012/2/18 6:48,1.2,10,1.3,10,3,11
2012/2/18 6:49,1.3,10,1.3,10,3.2,11
2012/2/18 6:50,1.4,10,1.4,10,2.1,11
2012/2/18 6:51,1.5,10,1.5,10,3.3,12
2012/2/18 6:52,1.6,11,1.6,10,4.2,12
2012/2/18 6:53,1.7,11,1.7,11,4.7,13
2012/2/18 6:54,1.7,11,1.7,11,2.5,15
2012/2/18 6:55,1.7,12,1.7,11,2.7,14
2012/2/18 6:56,1.7,12,1.7,11,2.5,13
2012/2/18 6:57,1.7,12,1.7,11,2.5,13
2012/2/18 6:58,1.7,13,1.7,11,3,16
2012/2/18 6:59,1.5,13,1.7,11,2,1
2012/2/18 7:00,1.5,14,1.5,11,1.9,15
2012/2/18 7:01,1.3,14,1.5,11,2.1,2
2012/2/18 7:02,1.2,15,1.3,11,1.5,15
2012/2/18 7:03,1.1,15,1.2,11,1.6,2
2012/2/18 7:04,0.9,16,1,11,1.8,3
2012/2/18 7:05,0.8,1,0.9,12,0.8,3
2012/2/18 7:06,0.8,1,0.8,12,1.8,3
2012/2/18 7:07,0.8,2,0.8,12,1.9,4
2012/2/18 7:08,0.7,2,0.8,13,1.8,4
2012/2/18 7:09,0.7,3,0.7,13,1.8,7
2012/2/18 7:10,0.8,3,0.8,14,1.5,7
2012/2/18 7:11,0.7,3,0.8,14,1.4,8
2012/2/18 7:12,0.7,4,0.7,15,1.1,8
2012/2/18 7:13,0.7,4,0.7,15,1,4
2012/2/18 7:14,0.7,4,0.7,16,1.9,1
2012/2/18 7:15,0.8,4,0.8,1,2.6,3
2012/2/18 7:16,0.9,4,0.9,4,2.6,3
2012/2/18 7:17,1,4,1,4,2.9,4
2012/2/18 7:18,1,4,1,4,2,4
2012/2/18 7:19,1.1,4,1.1,4,2.1,4
2012/2/18 7:20,1.1,4,1.1,4,2,5
2012/2/18 7:21,1.2,4,1.2,4,1.9,6
2012/2/18 7:22,1.3,4,1.3,4,2.1,6
2012/2/18 7:23,1.4,4,1.4,4,2,8
2012/2/18 7:24,1.4,5,1.4,4,2,9
2012/2/18 7:25,1.3,5,1.4,4,1.8,9
2012/2/18 7:26,1.3,6,1.3,4,2.5,9
2012/2/18 7:27,1.2,7,1.3,4,2.6,9
2012/2/18 7:28,1.1,7,1.2,4,1.9,9
2012/2/18 7:29,1,8,1.1,4,1.4,10
2012/2/18 7:30,1,9,1,4,2,12
2012/2/18 7:31,1,9,1,4,1.5,12
2012/2/18 7:32,1,10,1,4,1.5,10
2012/2/18 7:33,0.9,11,1,4,1.5,13
2012/2/18 7:34,1,11,1,5,1.9,12
2012/2/18 7:35,1,11,1,5,1.8,12
2012/2/18 7:36,1,12,1,6,1,13
2012/2/18 7:37,0.9,12,0.9,7,1.1,11
2012/2/18 7:38,0.9,13,0.9,7,1.4,14
2012/2/18 7:39,0.9,13,0.9,8,1.6,14
2012/2/18 7:40,0.9,13,0.9,9,1.3,15
2012/2/18 7:41,0.8,14,0.8,9,0.8,14
2012/2/18 7:42,0.7,14,0.8,10,0.6,12
2012/2/18 7:43,0.7,13,0.7,11,1.3,12
2012/2/18 7:44,0.6,13,0.7,11,1.4,13
2012/2/18 7:45,0.6,13,0.6,11,1,14
2012/2/18 7:46,0.6,13,0.6,12,1.4,14
2012/2/18 7:47,0.6,13,0.6,12,0.1,13
2012/2/18 7:48,0.5,13,0.6,13,0.1,8
2012/2/18 7:49,0.4,13,0.5,13,0.9,2
2012/2/18 7:50,0.5,14,0.5,13,1,2
2012/2/18 7:51,0.5,14,0.5,14,1.3,2
2012/2/18 7:52,0.6,16,0.6,13,1.8,3
2012/2/18 7:53,0.6,1,0.7,13,1.5,2
2012/2/18 7:54,0.6,2,0.6,16,1.3,3
2012/2/18 7:55,0.7,2,0.7,16,1.8,3
2012/2/18 7:56,0.7,3,0.7,16,1.1,4
2012/2/18 7:57,0.7,3,0.7,16,0.8,12
2012/2/18 7:58,0.8,3,0.8,3,2.2,10
2012/2/18 7:59,1,3,1,3,3.3,11
2012/2/18 8:00,1.2,4,1.2,4,3.2,11
2012/2/18 8:01,1.2,10,1.2,4,2.4,10
2012/2/18 8:02,1.2,11,1.2,4,1.6,12
2012/2/18 8:03,1.2,10,1.2,4,2.1,9
2012/2/18 8:04,1.2,10,1.2,4,1.8,10
2012/2/18 8:05,1.1,10,1.2,4,0.8,10
2012/2/18 8:06,1.2,10,1.2,4,2.7,9
2012/2/18 8:07,1.2,10,1.3,10,1.9,9
2012/2/18 8:08,1.2,10,1.3,10,1.6,9
2012/2/18 8:09,1.1,10,1.3,10,2.6,9
2012/2/18 8:10,1,10,1.1,10,1.5,8
2012/2/18 8:11,1,10,1,10,2.7,10
2012/2/18 8:12,1.1,10,1.1,10,3,9
2012/2/18 8:13,1.1,10,1.1,10,3,9
2012/2/18 8:14,1.2,10,1.2,10,2.5,10
2012/2/18 8:15,1.4,10,1.4,10,3.7,10
2012/2/18 8:16,1.3,10,1.4,10,2.7,10
2012/2/18 8:17,1.4,10,1.4,10,3.1,9
2012/2/18 8:18,1.4,10,1.4,10,2.4,9
2012/2/18 8:19,1.5,9,1.5,9,2.7,9
2012/2/18 8:20,1.6,9,1.6,9,3.2,9
2012/2/18 8:21,1.7,9,1.7,9,3.7,10
2012/2/18 8:22,1.7,9,1.7,9,2.9,10
2012/2/18 8:23,1.7,9,1.7,9,3.1,9
2012/2/18 8:24,1.8,9,1.8,10,3.3,9
2012/2/18 8:25,1.7,9,1.8,10,2.5,10
2012/2/18 8:26,1.7,10,1.7,10,2.5,10
2012/2/18 8:27,1.8,10,1.8,10,3.1,10
2012/2/18 8:28,1.8,10,1.8,10,2.9,9
2012/2/18 8:29,1.8,10,1.8,10,3,10
2012/2/18 8:30,1.8,10,1.8,10,3.1,10
2012/2/18 8:31,1.8,10,1.9,10,3.5,10
2012/2/18 8:32,1.8,10,1.8,10,3.5,10
2012/2/18 8:33,1.8,10,1.8,10,3.5,9
2012/2/18 8:34,1.9,10,1.9,10,3.5,10
2012/2/18 8:35,2,10,2,10,3.1,11
2012/2/18 8:36,2,10,2,10,2.9,10
2012/2/18 8:37,2,10,2,10,2.2,10
2012/2/18 8:38,1.8,10,1.9,10,0.9,8
2012/2/18 8:39,1.7,10,1.8,10,1,9
2012/2/18 8:40,1.5,9,1.7,10,1.4,7
2012/2/18 8:41,1.4,9,1.5,10,1.5,6
2012/2/18 8:42,1.3,9,1.4,10,1.5,7
2012/2/18 8:43,1.2,9,1.3,10,1.5,8
2012/2/18 8:44,1,8,1.2,10,1,9
2012/2/18 8:45,0.8,8,1,10,1.9,9
2012/2/18 8:46,0.8,8,0.8,10,1.9,8
2012/2/18 8:47,0.7,8,0.8,10,1.5,8
2012/2/18 8:48,0.8,8,0.8,10,2.5,10
2012/2/18 8:49,1,8,1,10,2.4,10
2012/2/18 8:50,1.1,8,1.1,9,3.3,8
2012/2/18 8:51,1.2,8,1.2,9,3.1,9
2012/2/18 8:52,1.4,9,1.4,9,3.6,9
2012/2/18 8:53,1.5,9,1.5,9,3.2,9
2012/2/18 8:54,1.7,9,1.7,9,3.5,10
2012/2/18 8:55,1.7,9,1.7,9,3.3,10
2012/2/18 8:56,1.8,9,1.8,9,3.2,10
2012/2/18 8:57,1.9,9,1.9,9,3.3,10
2012/2/18 8:58,1.9,9,1.9,9,3.2,10
2012/2/18 8:59,1.9,9,1.9,9,2.5,11
2012/2/18 9:00,1.8,9,1.9,9,3.1,10
2012/2/18 9:01,1.8,9,1.8,9,3.7,10
2012/2/18 9:02,1.8,9,1.8,9,3.5,10
2012/2/18 9:03,1.7,9,1.8,9,2.6,9
2012/2/18 9:04,1.7,10,1.7,9,3.7,10
2012/2/18 9:05,1.8,10,1.8,9,3.1,9
2012/2/18 9:06,1.9,10,1.9,9,4.5,10
2012/2/18 9:07,1.9,10,1.9,9,3.5,10
2012/2/18 9:08,2,10,2,10,4.1,11
2012/2/18 9:09,2.2,10,2.2,10,4.3,10
2012/2/18 9:10,2.4,10,2.4,10,4.5,9
2012/2/18 9:11,2.4,10,2.4,10,4.9,11
2012/2/18 9:12,2.6,10,2.6,10,5.4,10
2012/2/18 9:13,2.8,10,2.8,10,4.5,10
2012/2/18 9:14,2.9,10,2.9,10,4.7,10
2012/2/18 9:15,2.9,10,2.9,10,5,10
2012/2/18 9:16,2.9,10,2.9,10,4.1,10
2012/2/18 9:17,2.9,10,2.9,10,3.7,10
2012/2/18 9:18,2.9,10,2.9,10,4.3,10
2012/2/18 9:19,2.9,10,2.9,10,3.9,11
2012/2/18 9:20,2.9,10,2.9,10,4.9,11
2012/2/18 9:21,3,10,3,10,5.1,10
2012/2/18 9:22,2.9,10,3,10,3.5,11
2012/2/18 9:23,2.9,10,2.9,10,3.3,10
2012/2/18 9:24,2.9,10,2.9,10,3.5,10
2012/2/18 9:25,2.7,10,2.9,10,2.2,11
2012/2/18 9:26,2.6,11,2.7,10,2.7,10
2012/2/18 9:27,2.5,11,2.6,10,2,10
2012/2/18 9:28,2.3,11,2.5,10,1.8,10
2012/2/18 9:29,2.2,11,2.3,10,2.6,10
2012/2/18 9:30,2,10,2.2,10,2.6,9
2012/2/18 9:31,1.9,10,2,10,3.9,10
2012/2/18 9:32,1.9,10,1.9,10,4.3,10
2012/2/18 9:33,1.9,10,2,10,3.1,9
2012/2/18 9:34,1.9,10,1.9,10,3.5,10
2012/2/18 9:35,2.1,10,2.1,10,4.1,10
2012/2/18 9:36,2.1,10,2.2,11,3.7,10
2012/2/18 9:37,2,10,2.1,11,2.5,9
2012/2/18 9:38,2,10,2,11,1.5,10
2012/2/18 9:39,2.1,10,2.1,11,3.7,10
2012/2/18 9:40,2.1,10,2.1,10,2.7,11
2012/2/18 9:41,2,10,2.1,10,3.3,10
2012/2/18 9:42,1.9,10,2,10,3.5,10
2012/2/18 9:43,1.9,10,1.9,10,2.9,9
2012/2/18 9:44,1.7,10,1.9,10,2.2,9
2012/2/18 9:45,1.5,10,1.7,10,2.4,9
2012/2/18 9:46,1.4,10,1.5,10,1.6,10
2012/2/18 9:47,1.4,10,1.4,10,2.9,9
2012/2/18 9:48,1.5,10,1.5,10,3.3,9
2012/2/18 9:49,1.4,10,1.5,10,3.1,10
2012/2/18 9:50,1.3,9,1.4,10,2.7,9
2012/2/18 9:51,1.2,9,1.3,10,2.5,10
2012/2/18 9:52,1.1,9,1.2,10,2.5,9
2012/2/18 9:53,1.1,9,1.1,10,3,7
2012/2/18 9:54,1.2,9,1.2,10,2.5,9
2012/2/18 9:55,1.2,9,1.2,10,2.9,10
2012/2/18 9:56,1.3,9,1.3,10,2.5,9
2012/2/18 9:57,1.3,9,1.3,10,1.8,8
2012/2/18 9:58,1.2,9,1.3,10,1,10
2012/2/18 9:59,1.1,9,1.2,10,2,10
2012/2/18 10:00,1.1,9,1.2,9,2.4,8
2012/2/18 10:01,1.2,9,1.2,9,2,10
2012/2/18 10:02,1.1,9,1.2,9,1.8,9
2012/2/18 10:03,0.9,9,1.1,9,1.3,9
2012/2/18 10:04,0.8,9,0.9,9,1.6,8
2012/2/18 10:05,0.8,9,0.9,9,2.1,7
2012/2/18 10:06,0.8,9,0.8,9,2.2,8
2012/2/18 10:07,0.8,9,0.8,9,2,7
2012/2/18 10:08,0.9,8,0.9,9,2,8
2012/2/18 10:09,0.9,8,0.9,9,2,9
2012/2/18 10:10,0.8,8,0.9,9,2.5,8
2012/2/18 10:11,0.9,8,1,9,2.5,8
2012/2/18 10:12,1,8,1,9,2.4,8
2012/2/18 10:13,1.1,8,1.1,8,2.4,9
2012/2/18 10:14,1.2,8,1.2,8,2.5,9
2012/2/18 10:15,1.2,8,1.3,8,2.6,8
2012/2/18 10:16,1.3,8,1.3,8,2.1,9
2012/2/18 10:17,1.3,8,1.3,8,2,8
2012/2/18 10:18,1.3,9,1.3,8,1.9,7
2012/2/18 10:19,1.3,8,1.3,8,1.9,9
2012/2/18 10:20,1.4,8,1.4,8,2.5,8
2012/2/18 10:21,1.3,9,1.3,8,3.1,9
2012/2/18 10:22,1.3,9,1.3,8,3.2,9
2012/2/18 10:23,1.4,8,1.4,8,3.1,9
2012/2/18 10:24,1.5,8,1.5,8,3.3,8
2012/2/18 10:25,1.6,8,1.6,8,3.6,8
2012/2/18 10:26,1.7,8,1.7,8,3.2,8
2012/2/18 10:27,1.8,8,1.8,8,3.1,9
2012/2/18 10:28,1.8,8,1.8,8,3.1,8
2012/2/18 10:29,1.9,9,1.9,9,4.1,9
2012/2/18 10:30,2,9,2,9,2.6,9
2012/2/18 10:31,2,9,2,9,3.2,8
2012/2/18 10:32,2.1,9,2.1,9,3.6,9
2012/2/18 10:33,2.1,9,2.1,9,3.1,9
2012/2/18 10:34,2,9,2.1,9,3,8
2012/2/18 10:35,1.9,9,2,9,2.9,9
2012/2/18 10:36,1.9,9,1.9,9,2.7,8
2012/2/18 10:37,1.9,9,1.9,9,3,9
2012/2/18 10:38,1.9,9,1.9,9,3,9
2012/2/18 10:39,1.7,9,1.9,9,2.1,8
2012/2/18 10:40,1.6,9,1.7,9,0.9,7
2012/2/18 10:41,1.4,9,1.6,9,2,8
2012/2/18 10:42,1.5,9,1.5,9,3.7,9
2012/2/18 10:43,1.3,9,1.4,9,2.9,9
2012/2/18 10:44,1.3,9,1.4,9,2.4,9
2012/2/18 10:45,1.3,9,1.3,9,2.6,9
2012/2/18 10:46,1.2,9,1.3,9,3.1,9
2012/2/18 10:47,1.2,9,1.2,9,3.8,9
2012/2/18 10:48,1.3,9,1.3,9,3.5,10
2012/2/18 10:49,1.4,9,1.4,9,3,9
2012/2/18 10:50,1.5,9,1.5,9,2.2,9
2012/2/18 10:51,1.6,9,1.6,9,3,9
2012/2/18 10:52,1.6,9,1.7,9,2.9,8
2012/2/18 10:53,1.6,9,1.6,9,2.9,9
2012/2/18 10:54,1.7,9,1.7,9,2.7,9
2012/2/18 10:55,1.7,9,1.7,9,1.4,10
2012/2/18 10:56,1.6,9,1.7,9,1.8,9
2012/2/18 10:57,1.5,9,1.6,9,2.6,9
2012/2/18 10:58,1.4,9,1.5,9,2.4,9
2012/2/18 10:59,1.4,9,1.4,9,2.4,8
2012/2/18 11:00,1.4,9,1.4,9,4.2,9
2012/2/18 11:01,1.3,9,1.4,9,2.6,8
2012/2/18 11:02,1.2,9,1.3,9,1.8,11
2012/2/18 11:03,1.2,9,1.2,9,2.5,9
2012/2/18 11:04,1.2,9,1.2,9,2.7,10
2012/2/18 11:05,1.2,9,1.2,9,1.8,9
2012/2/18 11:06,1.2,9,1.2,9,1.6,10
2012/2/18 11:07,1.2,9,1.2,9,1.8,9
2012/2/18 11:08,1.1,9,1.2,9,1.6,9
2012/2/18 11:09,1.1,9,1.1,9,2.1,7